VANGUARD DEB, 1576

Orbit data source: Space-Track

VANGUARD DEB, 1576 is space debris in LEO originally from a launch on Mon, 17 Mar 1958 UTC launched from the Air Force Eastern Test Range (AFETR). Debris objects in space refer to the collection of defunct objects orbiting the Earth. Examples of debris include non-operational satellites, rocket bodies, and fragments generated from explosions, collisions, or faulty payload assembly.

Loading next visibility...
Identifier
1576, 1958-002C
Orbit
LEO
Country
Flag of USUS
Related business
Manufacturer
NRL
Mission
Spacecraft
Bus & Motor
Unknown
Mass
Unknown
Launch date (UTC)
1958-03-17 (68 years ago)
Launch vehicle
Unknown
Launch site
Air Force Eastern Test Range (AFETR)
Object type
Payload
Rocket body
Debris
Shape & HBR
Unknown shape, 0.1 m
Radar Cross Section
Small (<0.1 m²)

Expand to show TLE details & history
Last TLE update: 19 hours ago

TLE from 19 hours ago
0 VANGUARD DEB
1 01576U 58002C   26034.65508747  .00001983  00000-0  18287-2 0  9990
2 01576  34.2183 237.9579 1384427  25.4070 340.8533 11.82364535786297
Epoch: 2026-02-03T15:43Z
TLE epoch observation values (Epoch: 2026-02-03T15:43:19.557Z)
Latitude
0.00003°
Longitude
-131.70645°
Altitude
716.185 km
Speed
7.964 km/s
True Right ascension
15h 51m 49s
True Declination
0° 00' 00"
Sunlit
Object was in daylight at epoch
Visualization orbit readout
Latitude
Unknown
Longitude
Unknown
Altitude
Unknown
Speed
Unknown
Apparent Right ascension
Unknown
Apparent Declination
Unknown
Sunlit
N/A
Visualization observer readout
Local Sidereal Time
13:04:07
Azimuth
Unknown
Elevation
Unknown
Doppler factor
Unknown
Orbital elements
Apogee altitude
2,890.914 km
Perigee altitude
636.55 km
Semi-major axis
8,141.869 km
Eccentricity
0.13844
Inclination
34.2183°
RAAN
237.9579°
Arg. of periapsis
25.407°
True anomaly
334.65518°
Mean anomaly
340.8533°
Eccentric anomaly
337.86446°
Mean motion
2.95432 °/min
Orbital period
121.86 mins
BSTAR
0.0018287
Loading maneuver chart data...
Computing Atmospheric mass density...
Loading historical data...
Loading historical data...
Loading historical data...
Loading historical data...
Loading historical data...
Loading historical data...
Loading historical data...
Other satellites on launch #2 in the year 1958 (1958-03-17 UTC)

Documentation

Showing up to 5 results
|